Weather History for KTUL - December, 2014

Change the Weather History Date:

Thursday, December 25, 2014

  Actual Average Record
Temperature  
Mean Temperature 47 °F 38 °F  
Max Temperature 60 °F 48 °F 73 °F (1922)
Min Temperature 33 °F 28 °F -2 °F (1983)
Degree Days  
Heating Degree Days 18 27  
Month to date heating degree days 508 628  
Since 1 July heating degree days 1209 1264  
Moisture  
Dew Point 28 °F    
Average Humidity 55    
Maximum Humidity 82    
Minimum Humidity 28    
Precipitation  
Precipitation 0.00 in 0.08 in 1.29 in (1987)
Month to date precipitation 1.81 2.09  
Year to date precipitation 29.44 40.57  
Sea Level Pressure  
Sea Level Pressure 29.85 in    
Wind  
Wind Speed 18 mph (South)    
Max Wind Speed 33 mph    
Max Gust Speed 41 mph    
Visibility 10 miles    
Events      
T = Trace of Precipitation, MM = Missing Value Source: NWS Daily Summary

Daily Weather History Graph

Daily Weather History Graph

Search for Another Location

Airport or City:

Trip Planner

Search our weather history database for the weather conditions in past years. The results will help you decide how hot, cold, wet, or windy it might be!

Date:

Astronomy

Dec. 25, 2014 Rise Set
Actual Time 7:32 AM CST 5:14 PM CST
Civil Twilight 7:04 AM CST 5:43 PM CST
Nautical Twilight 6:31 AM CST 6:15 PM CST
Astronomical Twilight 6:00 AM CST 6:47 PM CST
Moon 10:13 AM CST (12/25) 9:42 PM CST (12/25)
Length of Visible Light 10h 39m
Length of Day
9h 42m
Waxing Crescent, 18% of the Moon is Illuminated
Dec 25
Waxing Crescent
Dec 28
First Quarter
Jan 4
Full
Jan 13
Last Quarter
Jan 20
New

Hourly Weather History & Observations

Time (CST) Temp. Windchill Dew Point Humidity Pressure Visibility Wind Dir Wind Speed Gust Speed Precip Events Conditions
12:53 AM 35.1 °F 27.9 °F 30.0 °F 82% 29.90 in 10.0 mi South 9.2 mph - N/A   Clear
1:53 AM 34.0 °F 26.6 °F 28.9 °F 82% 29.90 in 10.0 mi South 9.2 mph - N/A   Clear
2:53 AM 35.1 °F 26.9 °F 28.0 °F 76% 29.89 in 10.0 mi SSE 11.5 mph - N/A   Partly Cloudy
3:53 AM 34.0 °F 25.5 °F 28.0 °F 79% 29.87 in 10.0 mi SSE 11.5 mph - N/A   Scattered Clouds
4:53 AM 35.1 °F 25.5 °F 28.0 °F 76% 29.87 in 10.0 mi South 15.0 mph - N/A   Mostly Cloudy
5:53 AM 37.0 °F 28.9 °F 28.0 °F 70% 29.87 in 10.0 mi South 12.7 mph - N/A   Mostly Cloudy
6:53 AM 37.9 °F 29.2 °F 28.0 °F 68% 29.88 in 10.0 mi South 15.0 mph 21.9 mph N/A   Mostly Cloudy
7:53 AM 37.9 °F 28.2 °F 28.0 °F 68% 29.90 in 10.0 mi South 18.4 mph - N/A   Mostly Cloudy
8:53 AM 39.9 °F 30.2 °F 28.0 °F 63% 29.89 in 10.0 mi South 20.7 mph 32.2 mph N/A   Mostly Cloudy
9:53 AM 45.0 °F 36.0 °F 28.0 °F 52% 29.88 in 10.0 mi South 25.3 mph 35.7 mph N/A   Mostly Cloudy
10:53 AM 48.9 °F - 27.0 °F 43% 29.88 in 10.0 mi South 26.5 mph 38.0 mph N/A   Mostly Cloudy
11:53 AM 53.1 °F - 28.0 °F 38% 29.84 in 10.0 mi South 21.9 mph - N/A   Overcast
12:53 PM 57.0 °F - 25.0 °F 29% 29.82 in 10.0 mi South 20.7 mph 33.4 mph N/A   Mostly Cloudy
1:53 PM 59.0 °F - 26.1 °F 28% 29.78 in 10.0 mi South 25.3 mph 36.8 mph N/A   Mostly Cloudy
2:53 PM 59.0 °F - 27.0 °F 29% 29.77 in 10.0 mi South 20.7 mph - N/A   Mostly Cloudy
3:53 PM 59.0 °F - 26.1 °F 28% 29.77 in 10.0 mi South 26.5 mph 34.5 mph N/A   Mostly Cloudy
4:53 PM 57.0 °F - 26.1 °F 30% 29.79 in 10.0 mi South 21.9 mph 32.2 mph N/A   Mostly Cloudy
5:53 PM 55.9 °F - 27.0 °F 33% 29.80 in 10.0 mi South 20.7 mph 27.6 mph N/A   Mostly Cloudy
6:53 PM 55.0 °F - 28.9 °F 37% 29.82 in 10.0 mi South 20.7 mph 29.9 mph N/A   Mostly Cloudy
7:53 PM 54.0 °F - 30.0 °F 40% 29.84 in 10.0 mi South 23.0 mph 32.2 mph N/A   Mostly Cloudy
8:53 PM 53.1 °F - 28.9 °F 40% 29.84 in 10.0 mi South 16.1 mph - N/A   Mostly Cloudy
9:53 PM 52.0 °F - 28.9 °F 41% 29.86 in 10.0 mi South 15.0 mph - N/A   Mostly Cloudy
10:53 PM 52.0 °F - 30.0 °F 43% 29.87 in 10.0 mi South 15.0 mph - N/A   Mostly Cloudy
11:53 PM 48.9 °F - 30.9 °F 50% 29.88 in 10.0 mi SSE 10.4 mph - N/A   Mostly Cloudy